| time (UTC) | temp F | wind direction | speed MPH | gust MPH | rain 1hr in | rain 24hr in | rain mn in | humidity % | barometer mb |
| 20260906040041 | 0 | 0.0 | 0.0 | 0.00 | 0.00 | 0.00 | 1012.5 | ||
| 20260906034529 | 0 | 0.0 | 0.0 | 0.00 | 0.00 | 0.00 | 1012.7 | ||
| 20260906033025 | 0 | 0.0 | 0.0 | 0.00 | 0.00 | 0.00 | 1012.7 | ||
| 20260906031520 | 0 | 0.0 | 0.0 | 0.00 | 0.00 | 0.00 | 1012.9 | ||
| 20260906030016 | 0 | 0.0 | 0.0 | 0.00 | 0.00 | 0.00 | 1012.8 | ||
| 20260906024509 | 0 | 0.0 | 0.0 | 0.00 | 0.00 | 0.00 | 1012.7 | ||
| 20260906023004 | 0 | 0.0 | 0.0 | 0.00 | 0.00 | 0.00 | 1012.5 | ||
| 20260906021600 | 0 | 0.0 | 0.0 | 0.00 | 0.00 | 0.00 | 1012.1 | ||
| 20260906020056 | 0 | 0.0 | 0.0 | 0.00 | 0.00 | 0.00 | 1011.8 | ||
| 20260906014606 | 0 | 0.0 | 0.0 | 0.00 | 0.00 | 0.00 | 1011.8 | ||
| 20260906013046 | 74 | 244 | 1.0 | 2.0 | 0.00 | 0.00 | 0.00 | 47 | 1012.0 |
| 20260906011553 | 74 | 244 | 0.0 | 1.0 | 0.00 | 0.00 | 0.00 | 49 | 1011.8 |
| 20260906010044 | 74 | 244 | 1.0 | 2.0 | 0.00 | 0.00 | 0.00 | 52 | 1011.7 |
| 20260906004544 | 75 | 244 | 0.0 | 1.0 | 0.00 | 0.00 | 0.00 | 54 | 1011.5 |
| 20260906003042 | 76 | 244 | 0.0 | 2.0 | 0.00 | 0.00 | 0.00 | 57 | 1011.4 |
| 20260906001541 | 77 | 244 | 0.0 | 3.0 | 0.00 | 0.00 | 0.00 | 58 | 1011.2 |
| 20260906000042 | 78 | 244 | 0.0 | 2.0 | 0.00 | 0.00 | 0.00 | 58 | 1011.3 |
| 20260905234551 | 78 | 283 | 1.0 | 3.0 | 0.00 | 0.00 | 0.00 | 57 | 1011.1 |
| 20260905233037 | 79 | 198 | 0.0 | 2.0 | 0.00 | 0.00 | 0.00 | 57 | 1010.8 |
| 20260905231537 | 80 | 198 | 0.0 | 3.0 | 0.00 | 0.00 | 0.00 | 55 | 1010.6 |
| 20260905230041 | 80 | 56 | 0.0 | 3.0 | 0.00 | 0.00 | 0.00 | 55 | 1010.6 |
| 20260905224537 | 81 | 39 | 1.0 | 3.0 | 0.00 | 0.00 | 0.00 | 53 | 1010.7 |
| 20260905223005 | 81 | 334 | 0.0 | 2.0 | 0.00 | 0.00 | 0.00 | 53 | 1010.7 |
| 20260905221503 | 0 | 0.0 | 0.0 | 0.00 | 0.00 | 0.00 | 1010.7 | ||
| 20260905220029 | 0 | 0.0 | 0.0 | 0.00 | 0.00 | 0.00 | 1010.9 | ||
| 20260905214524 | 0 | 0.0 | 0.0 | 0.00 | 0.00 | 0.00 | 1010.9 | ||
| 20260905213052 | 0 | 0.0 | 0.0 | 0.00 | 0.00 | 0.00 | 1011.1 | ||
| 20260905211550 | 76 | 277 | 2.0 | 7.0 | 0.00 | 0.00 | 0.00 | 50 | 1011.3 |
| 20260905210046 | 0 | 0.0 | 0.0 | 0.00 | 0.00 | 0.00 | 1011.4 | ||
| 20260905204542 | 73 | 38 | 0.0 | 2.0 | 0.00 | 0.00 | 0.00 | 47 | 1011.6 |
| 20260905203041 | 72 | 38 | 0.0 | 2.0 | 0.00 | 0.00 | 0.00 | 47 | 1011.6 |
| 20260905201540 | 72 | 40 | 0.0 | 2.0 | 0.00 | 0.00 | 0.00 | 47 | 1012.0 |
| 20260905200049 | 71 | 61 | 2.0 | 5.0 | 0.00 | 0.00 | 0.00 | 49 | 1011.7 |
| 20260905194538 | 72 | 86 | 2.0 | 4.0 | 0.00 | 0.00 | 0.00 | 53 | 1012.1 |
| 20260905193041 | 72 | 295 | 2.0 | 9.0 | 0.00 | 0.00 | 0.00 | 56 | 1012.1 |
| 20260905191538 | 73 | 254 | 4.0 | 9.0 | 0.00 | 0.00 | 0.00 | 58 | 1010.9 |
| 20260905190046 | 75 | 261 | 7.0 | 14.0 | 0.00 | 0.00 | 0.00 | 58 | 1011.5 |
| 20260905184541 | 84 | 252 | 2.0 | 14.0 | 0.00 | 0.00 | 0.00 | 48 | 1011.3 |
| 20260905183031 | 91 | 85 | 4.0 | 12.0 | 0.00 | 0.00 | 0.00 | 43 | 1011.5 |
| 20260905181531 | 93 | 31 | 6.0 | 10.0 | 0.00 | 0.00 | 0.00 | 41 | 1011.1 |
| 20260905180026 | 94 | 79 | 2.0 | 7.0 | 0.00 | 0.00 | 0.00 | 39 | 1011.2 |
| 20260905174523 | 94 | 82 | 1.0 | 5.0 | 0.00 | 0.00 | 0.00 | 40 | 1011.7 |
| 20260905173022 | 94 | 280 | 2.0 | 6.0 | 0.00 | 0.00 | 0.00 | 37 | 1012.1 |
| 20260905171518 | 93 | 51 | 2.0 | 9.0 | 0.00 | 0.00 | 0.00 | 37 | 1012.4 |
| 20260905170019 | 93 | 78 | 3.0 | 7.0 | 0.00 | 0.00 | 0.00 | 38 | 1012.6 |
| 20260905164517 | 92 | 349 | 1.0 | 5.0 | 0.00 | 0.00 | 0.00 | 42 | 1012.8 |
| 20260905163013 | 92 | 51 | 3.0 | 8.0 | 0.00 | 0.00 | 0.00 | 42 | 1013.1 |
| 20260905161509 | 92 | 29 | 1.0 | 7.0 | 0.00 | 0.00 | 0.00 | 45 | 1013.2 |
| 20260905160037 | 91 | 101 | 2.0 | 8.0 | 0.00 | 0.00 | 0.00 | 44 | 1013.3 |
| 20260905154533 | 90 | 148 | 1.0 | 6.0 | 0.00 | 0.00 | 0.00 | 31 | 1013.5 |
| 20260905153043 | 89 | 186 | 1.0 | 6.0 | 0.00 | 0.00 | 0.00 | 30 | 1013.5 |
| 20260905151524 | 88 | 360 | 1.0 | 6.0 | 0.00 | 0.00 | 0.00 | 29 | 1013.4 |
| 20260905150022 | 86 | 204 | 2.0 | 7.0 | 0.00 | 0.00 | 0.00 | 30 | 1013.5 |
| 20260905144520 | 86 | 240 | 1.0 | 4.0 | 0.00 | 0.00 | 0.00 | 31 | 1013.7 |
| 20260905143044 | 84 | 200 | 2.0 | 4.0 | 0.00 | 0.00 | 0.00 | 34 | 1013.6 |
| 20260905141542 | 83 | 277 | 0.0 | 4.0 | 0.00 | 0.00 | 0.00 | 36 | 1013.5 |
| 20260905140010 | 83 | 272 | 2.0 | 6.0 | 0.00 | 0.00 | 0.00 | 36 | 1013.7 |
| 20260905134510 | 82 | 232 | 0.0 | 4.0 | 0.00 | 0.00 | 0.00 | 38 | 1013.7 |
| 20260905133035 | 81 | 232 | 1.0 | 3.0 | 0.00 | 0.00 | 0.00 | 37 | 1013.8 |
| 20260905131543 | 81 | 209 | 0.0 | 1.0 | 0.00 | 0.00 | 0.00 | 40 | 1013.7 |
| 20260905130130 | 80 | 210 | 1.0 | 3.0 | 0.00 | 0.00 | 0.00 | 40 | 1013.9 |
| 20260905124556 | 78 | 209 | 0.0 | 1.0 | 0.00 | 0.00 | 0.00 | 45 | 1013.8 |
| 20260905123054 | 76 | 209 | 0.0 | 1.0 | 0.00 | 0.00 | 0.00 | 48 | 1013.8 |
| 20260905121522 | 74 | 209 | 0.0 | 2.0 | 0.00 | 0.00 | 0.00 | 49 | 1013.8 |
| 20260905120021 | 73 | 210 | 0.0 | 1.0 | 0.00 | 0.00 | 0.00 | 50 | 1013.7 |
| 20260905114551 | 72 | 360 | 0.0 | 0.0 | 0.00 | 0.00 | 0.00 | 50 | 1013.6 |
| 20260905113049 | 71 | 360 | 0.0 | 1.0 | 0.00 | 0.00 | 0.00 | 49 | 1013.5 |
| 20260905111605 | 71 | 360 | 0.0 | 0.0 | 0.00 | 0.00 | 0.00 | 48 | 1013.2 |
| 20260905110048 | 72 | 360 | 0.0 | 1.0 | 0.00 | 0.00 | 0.00 | 48 | 1012.8 |
| 20260905104544 | 71 | 360 | 0.0 | 0.0 | 0.00 | 0.00 | 0.00 | 48 | 1012.5 |
| 20260905103044 | 71 | 360 | 0.0 | 0.0 | 0.00 | 0.00 | 0.00 | 48 | 1012.3 |
| 20260905101510 | 72 | 360 | 1.0 | 2.0 | 0.00 | 0.00 | 0.00 | 46 | 1012.6 |
| 20260905100015 | 72 | 360 | 0.0 | 0.0 | 0.00 | 0.00 | 0.00 | 46 | 1012.4 |
| 20260905094511 | 72 | 360 | 0.0 | 0.0 | 0.00 | 0.00 | 0.00 | 45 | 1012.6 |
| 20260905093006 | 73 | 360 | 0.0 | 0.0 | 0.00 | 0.00 | 0.00 | 46 | 1012.5 |
| 20260905091504 | 72 | 360 | 0.0 | 0.0 | 0.00 | 0.00 | 0.00 | 43 | 1012.4 |
| 20260905090003 | 73 | 360 | 0.0 | 0.0 | 0.00 | 0.00 | 0.00 | 39 | 1012.5 |
| 20260905084617 | 73 | 360 | 0.0 | 0.0 | 0.00 | 0.00 | 0.00 | 39 | 1012.7 |
| 20260905083058 | 73 | 360 | 0.0 | 2.0 | 0.00 | 0.00 | 0.00 | 39 | 1012.7 |
| 20260905081554 | 74 | 360 | 0.0 | 0.0 | 0.00 | 0.00 | 0.00 | 39 | 1012.9 |
| 20260905080054 | 74 | 360 | 0.0 | 0.0 | 0.00 | 0.00 | 0.00 | 38 | 1013.0 |
| 20260905074555 | 75 | 360 | 0.0 | 2.0 | 0.00 | 0.00 | 0.00 | 38 | 1013.0 |
| 20260905073058 | 74 | 360 | 0.0 | 2.0 | 0.00 | 0.00 | 0.00 | 38 | 1013.1 |
| 20260905071546 | 75 | 360 | 0.0 | 2.0 | 0.00 | 0.00 | 0.00 | 38 | 1013.3 |
| 20260905070044 | 74 | 360 | 0.0 | 1.0 | 0.00 | 0.00 | 0.00 | 39 | 1013.4 |
| 20260905064539 | 74 | 360 | 0.0 | 0.0 | 0.00 | 0.00 | 0.00 | 38 | 1013.5 |
| 20260905063037 | 75 | 360 | 0.0 | 1.0 | 0.00 | 0.00 | 0.00 | 38 | 1013.6 |
| 20260905061537 | 75 | 360 | 0.0 | 2.0 | 0.00 | 0.00 | 0.00 | 38 | 1013.8 |
| 20260905060037 | 75 | 360 | 0.0 | 1.0 | 0.00 | 0.00 | 0.00 | 39 | 1014.1 |
| 20260905054540 | 75 | 360 | 0.0 | 1.0 | 0.00 | 0.00 | 0.00 | 45 | 1014.2 |
| 20260905053026 | 77 | 205 | 0.0 | 0.0 | 0.00 | 0.00 | 0.00 | 44 | 1014.2 |
| 20260905051524 | 77 | 360 | 0.0 | 1.0 | 0.00 | 0.00 | 0.00 | 44 | 1014.4 |
| 20260905050023 | 77 | 360 | 0.0 | 2.0 | 0.00 | 0.00 | 0.00 | 44 | 1014.3 |
| 20260905044522 | 77 | 360 | 0.0 | 1.0 | 0.00 | 0.00 | 0.00 | 44 | 1014.6 |
| 20260905043026 | 77 | 360 | 0.0 | 1.0 | 0.00 | 0.00 | 0.00 | 45 | 1014.4 |
| 20260905041519 | 77 | 360 | 0.0 | 0.0 | 0.00 | 0.00 | 0.00 | 46 | 1014.3 |